[[{"header":{"parameterUnit":"m.s-1","parameterCategory":1,"la1":30.2991,"la2":30.254,"lo1":-89.0895,"lo2":-89.0444,"dy":0.0017,"dx":0.0017,"nx":28,"ny":28,"refTime":"2024-08-26T21:00:00:Z","depth":0,"parameterNumber":2,"parameterNumberName":"U-component_of_WINDS"},"data":[0,0,0,0,0,0,0,0,0,0,0,0,0,0,0,0,0,0,0,0,0,0,0,0,0,0,0,0,0,0,0,0,0,0,0,0,0,0,0,0,0,0,0,0,0,0,0,0,0,0,0,0,0,0,0,0,0,0,0.5587,0.5588,0,0.5647,0.5648,0.5648,0.5685,0.5685,0.5686,0.5686,0.5744,0.5745,0.5747,0,0,0,0,0,0,0,0,0,0,0,0,0,0.5501,0.5502,0.5587,0.5588,0.5589,0.5647,0.5648,0.5649,0.5685,0.5685,0.5686,0.5686,0.5744,0.5745,0.5747,0,0,0,0,0,0,0,0,0,0,0,0,0,0.5547,0.5503,0.5587,0.5614,0.5617,0.5647,0.5648,0.5649,0.5685,0.5685,0.5686,0.5686,0.5743,0.5745,0.5747,0.5754,0,0,0.5753,0.5754,0,0,0,0,0,0,0,0,0.5544,0.555,0.5609,0.5612,0.5616,0.5659,0.5639,0.5684,0.5685,0.5659,0.5686,0.5686,0.5715,0.572,0.573,0.5756,0.5759,0.5754,0.5755,0.5756,0.5756,0,0,0,0,0,0,0,0.5541,0.5548,0.5611,0.561,0.5614,0.5622,0.5629,0.5647,0.5685,0.5661,0.5664,0.5671,0.5717,0.5728,0.5732,0.576,0.5753,0.5755,0.5757,0.5757,0.5793,0.5793,0,0,0,0,0,0,0.5534,0.5545,0.5609,0.5613,0.558,0.5623,0.5631,0.5645,0.5685,0.5691,0.5671,0.5673,0.5724,0.5729,0.5734,0.5744,0.5756,0.5758,0.5759,0.5794,0.5793,0.5793,0,0,0,0,0,0,0.5532,0.554,0.5606,0.558,0.5589,0.5624,0.564,0.5646,0.5657,0.5692,0.5698,0.5675,0.5725,0.5731,0.5749,0.5746,0.5758,0.576,0.5794,0.5794,0.5793,0.5763,0,0,0,0,0,0,0.553,0.5539,0.5542,0.5579,0.559,0.5621,0.564,0.5647,0.5661,0.5664,0.5698,0.5704,0.5726,0.5745,0.5751,0.5749,0.5762,0.5794,0.5794,0.5793,0.5765,0.5762,0.576,0,0,0,0,0,0.5526,0.5531,0.5542,0.555,0.5596,0.5621,0.5627,0.5653,0.566,0.5664,0.5686,0.5703,0.5746,0.5747,0.5753,0.5752,0.5795,0.5794,0.5793,0.5766,0.5763,0.576,0,0,0,0,0,0,0.5492,0.5537,0.555,0.5567,0.559,0.5627,0.5632,0.5649,0.5669,0.5671,0.5701,0.5709,0.5723,0.5739,0.574,0.576,0.5772,0.5773,0.5749,0.5746,0.5744,0.5739,0.5764,0,0,0,0,0,0.5487,0.5504,0.5542,0.5553,0.5564,0.5596,0.5608,0.5626,0.5651,0.566,0.5684,0.5706,0.5725,0.5737,0.5756,0.5768,0.5775,0.577,0.5768,0.5765,0.5765,0.5772,0.577,0.5791,0.5791,0.5791,0,0,0.5475,0.5502,0.5511,0.5547,0.5567,0.5584,0.5604,0.5621,0.5633,0.5663,0.5681,0.5699,0.5726,0.574,0.5748,0.5754,0.5761,0.5765,0.5763,0.5764,0.5771,0.5769,0.5767,0.5791,0.5791,0.5791,0,0,0.5463,0.5485,0.5497,0.5517,0.5547,0.5568,0.5571,0.5605,0.5619,0.5638,0.566,0.5674,0.5706,0.5724,0.5737,0.5731,0.5747,0.5736,0.5723,0.5729,0.5727,0.5726,0.5722,0.5721,0.5736,0.5736,0.5736,0,0.5445,0.5472,0.5501,0.5516,0.5531,0.5559,0.557,0.5588,0.5622,0.5631,0.5638,0.5678,0.5699,0.5717,0.5716,0.5726,0.5729,0.5732,0.5725,0.5724,0.5723,0.572,0.5719,0.5735,0.5735,0.5735,0.5735,0,0.5447,0.5465,0.5471,0.5504,0.552,0.5533,0.5562,0.5574,0.5591,0.5611,0.5628,0.5654,0.5678,0.5684,0.57,0.5705,0.5708,0.572,0.5732,0.5719,0.5717,0.5716,0.5733,0.5733,0.5734,0.5734,0,0,0.5415,0.5464,0.5465,0.5481,0.5516,0.553,0.5544,0.5568,0.5577,0.56,0.5612,0.5638,0.5649,0.5664,0.5682,0.5687,0.5679,0.5699,0.57,0.5693,0.5685,0.5675,0.5673,0.569,0.569,0.569,0.5682,0,0.5407,0.5435,0.5461,0.5478,0.5495,0.5522,0.5534,0.5556,0.5574,0.559,0.5611,0.5628,0.5642,0.5651,0.5658,0.5679,0.5678,0.568,0.57,0.57,0.5692,0.5672,0.5662,0.5653,0.5682,0.5681,0.5681,0,0.5402,0.5424,0.5443,0.5476,0.5484,0.5495,0.5519,0.5534,0.5559,0.5572,0.5589,0.5608,0.5623,0.5634,0.5654,0.5654,0.5664,0.5676,0.5676,0.5678,0.5689,0.5673,0.5651,0.5649,0.5681,0.5681,0.5681,0,0.5375,0.5409,0.5425,0.5438,0.5477,0.5483,0.55,0.5525,0.5538,0.5559,0.5567,0.5589,0.5601,0.5617,0.5641,0.5647,0.5658,0.5671,0.5668,0.5667,0.5669,0.5668,0.5647,0.5676,0.5676,0.5676,0.5676,0,0.5363,0.5373,0.5414,0.5423,0.5436,0.5465,0.5476,0.5494,0.5517,0.553,0.5554,0.5565,0.5597,0.5612,0.5631,0.5644,0.5649,0.5659,0.5664,0.5657,0.5655,0.5663,0.5664,0.5676,0.5676,0.5676,0.5676,0,0.5335,0.5363,0.5382,0.5417,0.5426,0.5433,0.5463,0.5473,0.5493,0.5509,0.5514,0.5545,0.5564,0.559,0.5616,0.5629,0.5639,0.5647,0.563,0.5633,0.5628,0.5628,0.561,0.5609,0.564,0.564,0.5639,0,0.5325,0.5334,0.5371,0.5381,0.5397,0.5414,0.5428,0.5456,0.5469,0.5498,0.5504,0.5525,0.5542,0.557,0.5595,0.5615,0.5623,0.5615,0.5626,0.5618,0.5621,0.562,0.5621,0.5612,0.5612,0.5612,0.5611,0,0.5304,0.5318,0.5337,0.536,0.5375,0.5395,0.5415,0.5422,0.5455,0.5468,0.5488,0.5502,0.5529,0.5548,0.5571,0.5587,0.5604,0.5608,0.5608,0.56,0.559,0.5594,0.5622,0.5608,0.5608,0.5609,0.5609,0.5609,0.5285,0.5293,0.532,0.534,0.5359,0.5377,0.5388,0.541,0.5427,0.5452,0.5467,0.5486,0.551,0.5543,0.5558,0.5572,0.5579,0.5579,0.5579,0.5579,0.5575,0.5588,0.5576,0.5576,0.5576,0.5576,0.5577,0,0.5264,0.5283,0.5301,0.5329,0.5345,0.5361,0.5384,0.5395,0.5411,0.5433,0.545,0.5472,0.5491,0.5517,0.5537,0.5543,0.5552,0.5548,0.5547,0.555,0.5569,0.5566,0.5541,0.5541,0.5541,0.5541,0.5541,0.5541,0.5256,0.5271,0.5287,0.5311,0.533,0.5349,0.536,0.5377,0.5394,0.5418,0.5434,0.5451,0.5474,0.5496,0.5514,0.5521,0.5527,0.552,0.5529,0.5546,0.5549,0.5552,0.555,0.5521,0.5521,0.551,0.5509,0.5509]},{"header":{"parameterUnit":"m.s-1","parameterCategory":1,"la1":30.2991,"la2":30.254,"lo1":-89.0895,"lo2":-89.0444,"dy":0.0017,"dx":0.0017,"nx":28,"ny":28,"refTime":"2024-08-26T21:00:00:Z","depth":0,"parameterNumber":3,"parameterNumberName":"V-component_of_WINDS"},"data":[0,0,0,0,0,0,0,0,0,0,0,0,0,0,0,0,0,0,0,0,0,0,0,0,0,0,0,0,0,0,0,0,0,0,0,0,0,0,0,0,0,0,0,0,0,0,0,0,0,0,0,0,0,0,0,0,0,0,1.5832,1.5832,0,1.5788,1.5788,1.5787,1.5751,1.5751,1.5751,1.575,1.5702,1.5701,1.57,0,0,0,0,0,0,0,0,0,0,0,0,0,1.5883,1.5883,1.5832,1.5832,1.5831,1.5788,1.5788,1.5787,1.5751,1.5751,1.575,1.575,1.5702,1.5701,1.57,0,0,0,0,0,0,0,0,0,0,0,0,0,1.5852,1.5882,1.5833,1.5808,1.5806,1.5788,1.5788,1.5787,1.5751,1.5751,1.575,1.575,1.5703,1.5701,1.57,1.5702,0,0,1.5696,1.5695,0,0,0,0,0,0,0,0,1.5854,1.585,1.5812,1.581,1.5807,1.5775,1.5788,1.5758,1.5752,1.5772,1.575,1.575,1.5726,1.5723,1.5716,1.57,1.5698,1.5695,1.5695,1.5694,1.5694,0,0,0,0,0,0,0,1.5856,1.5852,1.5815,1.5812,1.5809,1.5799,1.5794,1.5782,1.5753,1.577,1.5767,1.5763,1.5725,1.5717,1.5714,1.5697,1.5695,1.5694,1.5693,1.5693,1.5679,1.5679,0,0,0,0,0,0,1.5863,1.5854,1.5816,1.5813,1.583,1.5798,1.5793,1.5786,1.5753,1.5747,1.5763,1.5761,1.572,1.5716,1.5713,1.5712,1.5694,1.5693,1.5692,1.5678,1.5679,1.568,0,0,0,0,0,0,1.5864,1.586,1.5818,1.5833,1.5827,1.5798,1.579,1.5785,1.5777,1.5748,1.5742,1.5761,1.5719,1.5715,1.5705,1.571,1.5692,1.5691,1.5678,1.5679,1.5679,1.5711,0,0,0,0,0,0,1.5865,1.586,1.5861,1.5833,1.5826,1.5812,1.5791,1.5785,1.5775,1.5772,1.5744,1.5739,1.5719,1.5707,1.5703,1.5707,1.569,1.5677,1.5678,1.5679,1.5709,1.5713,1.5716,0,0,0,0,0,1.5867,1.5872,1.5862,1.5857,1.5827,1.5812,1.5808,1.5786,1.5776,1.5776,1.5757,1.574,1.571,1.5706,1.5702,1.5706,1.5677,1.5678,1.5679,1.5708,1.5712,1.5716,0,0,0,0,0,0,1.59,1.5868,1.5856,1.5852,1.5835,1.5806,1.5806,1.5791,1.5776,1.5774,1.5745,1.5739,1.5732,1.5718,1.5714,1.5705,1.5691,1.5691,1.5715,1.5718,1.5721,1.5724,1.5688,0,0,0,0,0,1.5907,1.5898,1.587,1.5869,1.5861,1.5835,1.5828,1.5812,1.5793,1.5786,1.5766,1.5748,1.5734,1.5726,1.5711,1.5708,1.57,1.5708,1.5711,1.5714,1.5714,1.5709,1.5712,1.5683,1.5683,1.5683,0,0,1.5921,1.5902,1.5898,1.5875,1.586,1.5851,1.583,1.5821,1.5813,1.5784,1.5774,1.5758,1.5736,1.5729,1.5725,1.5717,1.572,1.5715,1.5717,1.5716,1.5711,1.5714,1.5716,1.5684,1.5684,1.5684,0,0,1.594,1.5926,1.5923,1.5909,1.5887,1.587,1.5869,1.5843,1.5832,1.5821,1.5799,1.5789,1.5767,1.5751,1.5741,1.5755,1.5738,1.5751,1.5767,1.5763,1.5766,1.5767,1.5771,1.5773,1.5752,1.5752,1.5752,0,1.596,1.5946,1.5923,1.5916,1.5906,1.588,1.5876,1.5863,1.5838,1.5831,1.5823,1.5794,1.5777,1.5765,1.5769,1.5762,1.5759,1.5754,1.5767,1.5769,1.577,1.5774,1.5775,1.5753,1.5753,1.5753,1.5753,0,1.597,1.5961,1.5961,1.5938,1.5928,1.5922,1.5898,1.589,1.5875,1.5859,1.5847,1.5826,1.5807,1.5804,1.5789,1.579,1.5785,1.5773,1.5758,1.5775,1.5778,1.5779,1.5756,1.5755,1.5755,1.5754,0,0,1.6009,1.5973,1.5974,1.5962,1.5937,1.5928,1.5921,1.5903,1.5897,1.5881,1.5873,1.5855,1.5843,1.583,1.5814,1.581,1.5822,1.5798,1.5797,1.5802,1.582,1.5829,1.5831,1.5811,1.5811,1.5811,1.5822,0,1.6023,1.601,1.5989,1.5982,1.5972,1.5948,1.5941,1.5924,1.5909,1.5897,1.588,1.5867,1.5853,1.5845,1.5841,1.5821,1.5825,1.582,1.5802,1.5802,1.5807,1.5832,1.5842,1.5853,1.5823,1.5823,1.5823,0,1.6039,1.6024,1.6016,1.5991,1.5986,1.5981,1.5962,1.5952,1.5932,1.5921,1.5908,1.589,1.5879,1.5867,1.5852,1.5849,1.5841,1.583,1.583,1.5826,1.5812,1.5828,1.5856,1.5857,1.5824,1.5824,1.5824,0,1.6066,1.6045,1.6037,1.6028,1.5999,1.5995,1.5983,1.5962,1.5953,1.5936,1.593,1.5912,1.5903,1.5889,1.5866,1.5859,1.5853,1.5839,1.5842,1.5843,1.5841,1.5841,1.5866,1.5838,1.5838,1.5838,1.5838,0,1.6084,1.608,1.6049,1.6044,1.6038,1.6014,1.6009,1.5994,1.5976,1.5967,1.5945,1.5936,1.5907,1.5895,1.5877,1.5867,1.5863,1.5852,1.5848,1.5854,1.5855,1.5847,1.5845,1.5838,1.5838,1.5838,1.5838,0,1.6113,1.6092,1.6082,1.6055,1.6048,1.6045,1.6022,1.6015,1.5999,1.5987,1.5983,1.5957,1.5941,1.5918,1.5895,1.5883,1.5875,1.5868,1.5882,1.5879,1.5883,1.5883,1.5903,1.5904,1.5876,1.5876,1.5877,0,1.6125,1.6122,1.6095,1.6088,1.6076,1.6065,1.6055,1.6031,1.6022,1.5999,1.5995,1.5978,1.5963,1.594,1.5918,1.59,1.5891,1.59,1.5888,1.5895,1.589,1.589,1.5889,1.5902,1.5902,1.5903,1.5903,0,1.6149,1.6139,1.6126,1.611,1.6099,1.6085,1.607,1.6065,1.6037,1.6028,1.6013,1.6001,1.5979,1.5962,1.5941,1.5927,1.591,1.5907,1.5906,1.5912,1.592,1.5915,1.5888,1.5906,1.5906,1.5906,1.5905,1.5905,1.6169,1.6164,1.6145,1.6131,1.6117,1.6103,1.6096,1.6079,1.6066,1.6046,1.6033,1.6018,1.5997,1.5968,1.5955,1.5942,1.5934,1.5934,1.5934,1.5934,1.5936,1.5924,1.5938,1.5938,1.5938,1.5938,1.5938,0,1.619,1.6177,1.6165,1.6144,1.6133,1.612,1.6102,1.6094,1.6081,1.6064,1.605,1.6032,1.6015,1.5992,1.5974,1.5968,1.596,1.5964,1.5963,1.596,1.5944,1.5945,1.5971,1.5971,1.5971,1.5971,1.5971,1.5971,1.62,1.6191,1.6179,1.6162,1.6148,1.6134,1.6125,1.6112,1.6098,1.6079,1.6066,1.6051,1.6031,1.6011,1.5995,1.5988,1.5982,1.5988,1.5979,1.5964,1.5961,1.5958,1.596,1.5987,1.5987,1.5996,1.5996,1.5996]}]]